Location: Unspecified
(44.4377°N, 88.0525°W)
Time: 08:50:49
(UTC-05:00)

Resurs 1-4 Rocket - Visible Passes

Search period start: 19 September 2014 00:00
Search period end: 29 September 2014 00:00
Orbit: 801 x 814 km, 98.3° (Epoch: 18 September)

Date Brightness Start Highest point End Pass type
(mag) Time Alt. Az. Time Alt. Az. Time Alt. Az.
19 Sep 4.3 03:57:18 10° NE 04:01:27 23° E 04:05:35 10° SE visible
19 Sep 2.3 05:36:27 10° N 05:41:34 50° WNW 05:46:41 10° SW visible
20 Sep 4.8 03:34:05 10° ENE 03:36:45 14° E 03:39:24 10° ESE visible
20 Sep 2.0 05:11:54 10° NNE 05:17:14 81° WNW 05:22:33 10° SSW visible
21 Sep 2.5 04:47:31 10° NNE 04:52:49 64° ESE 04:58:04 10° S visible
22 Sep 3.4 04:23:20 10° NNE 04:28:18 39° E 04:33:14 10° SSE visible
22 Sep 3.0 06:03:27 10° N 06:08:01 30° WNW 06:12:36 10° SW visible
23 Sep 4.2 03:59:26 10° NE 04:03:42 24° E 04:07:57 10° SSE visible
23 Sep 2.4 05:38:42 10° N 05:43:47 47° WNW 05:48:51 10° SW visible
24 Sep 4.8 03:36:06 10° NE 03:39:00 15° E 03:41:54 10° ESE visible
24 Sep 2.0 05:14:08 10° N 05:19:27 77° WNW 05:24:45 10° SSW visible
25 Sep 2.4 04:49:44 10° NNE 04:55:02 67° ESE 05:00:19 10° S visible
26 Sep 3.3 04:25:31 10° NNE 04:30:32 41° E 04:35:32 10° SSE visible
26 Sep 3.0 06:05:43 10° N 06:10:13 29° WNW 06:14:43 10° WSW visible
27 Sep 4.1 04:01:34 10° NE 04:05:57 25° E 04:10:18 10° SSE visible
27 Sep 2.4 05:40:57 10° N 05:46:00 45° WNW 05:51:01 10° SW visible
28 Sep 4.7 03:38:08 10° NE 03:41:16 16° E 03:44:23 10° SE visible
28 Sep 2.0 05:16:21 10° N 05:21:40 73° WNW 05:26:58 10° SSW visible
